Wind_Speed
24 24 23 19 21 17 17 18 20 17 16 13 14 16 10 4 5 5 9 8 6 12 7 4 7 11 19 12 10 13 18 16 14 12 12 8 7 9 6 9 10 14 17 17
26 29 25 20 22 19 16 17 20 22 16 16 16 17 18 2 12 7 7 3 5 2 5 3 8 11 12 16 10 10 11 15 18 17 12 8 6 6 8 10 7 15 18 19
28 29 20 23 26 23 19 21 21 24 21 15 17 18 20 15 8 10 13 9 8 7 13 15 13 8 17 19 10 12 14 19 24 20 15 13 13 12 11 9 10 14 14 14
32 24 23 23 28 27 23 21 23 23 22 16 16 19 20 21 10 9 14 7 8 13 13 14 10 11 19 18 14 16 20 18 24 23 21 17 18 20 20 18 19 19 18 17
36 25 23 25 30 26 22 23 25 24 25 15 16 19 23 21 13 12 13 8 4 7 17 19 24 26 20 19 16 21 19 16 27 24 13 16 19 23 24 26 25 25 26 24
36 28 27 34 28 28 24 27 28 27 24 21 16 17 24 20 17 21 15 11 9 13 9 23 29 19 22 18 17 20 22 20 35 24 9 13 15 20 26 30 30 30 29 31
38 29 31 32 30 31 28 28 29 24 24 23 16 18 15 18 19 21 23 19 19 20 17 26 15 6 16 20 29 28 19 26 12 10 15 16 17 28 24 19 23 30 33 36
38 31 34 33 33 33 26 28 30 24 24 23 21 19 15 18 23 22 25 21 22 19 18 24 10 9 16 13 18 6 16 18 26 17 19 19 23 28 32 26 23 22 22 31
41 39 36 33 34 30 28 28 30 26 24 23 20 18 16 21 23 24 27 22 22 23 23 17 4 2 5 11 17 2 31 7 31 31 33 31 30 31 33 33 27 31 32 38
43 43 35 35 33 30 32 33 29 26 24 20 17 16 20 24 23 22 21 21 23 31 27 17 10 10 18 20 20 20 23 35 22 44 40 42 43 40 40 35 41 43 50 54
47 45 38 35 33 36 34 34 29 24 22 17 16 21 23 24 22 21 18 23 26 27 28 22 19 17 23 28 30 28 34 42 49 47 53 51 46 47 54 58 60 63 69 65
52 50 43 39 37 36 34 35 29 24 21 14 17 23 26 24 22 24 25 28 32 31 31 26 23 24 17 22 28 34 38 44 55 61 61 60 64 65 69 71 74 78 80 76
54 48 47 44 38 39 35 35 30 25 21 16 22 24 24 24 25 26 32 30 33 36 31 34 32 34 31 36 41 42 46 47 53 60 63 68 67 73 79 81 86 90 81 77
57 52 47 45 45 41 37 35 33 29 24 23 24 24 21 26 28 29 30 32 36 38 42 40 39 39 39 38 45 47 49 54 59 64 71 76 81 81 87 89 94 90 79 67
59 53 51 48 46 40 40 37 34 29 28 25 24 27 25 28 29 26 31 36 41 46 48 46 49 52 49 50 52 55 58 62 60 72 75 79 82 92 92 95 87 75 60 50
58 54 54 51 47 42 41 38 36 32 32 31 27 28 26 29 28 26 31 40 42 48 53 53 55 57 63 64 65 65 70 69 74 79 83 90 95 101 94 77 65 51 44 42
58 54 56 53 49 44 42 41 38 35 36 33 32 28 28 23 25 31 34 36 42 44 51 55 54 57 58 63 64 68 74 76 81 87 93 96 87 76 61 51 47 43 43 43
57 52 55 55 51 44 44 40 41 36 34 32 32 33 33 27 28 33 39 42 44 45 51 52 54 61 64 61 61 68 70 77 81 81 69 59 53 50 47 44 43 44 45 46
55 53 53 55 52 46 44 40 39 36 36 34 34 32 31 32 30 31 30 35 43 50 51 53 54 52 51 60 63 66 66 64 55 49 46 44 44 43 43 43 45 47 49 50
55 56 54 53 51 44 44 41 38 35 33 39 37 34 33 36 35 31 32 33 36 42 43 41 43 45 47 51 51 53 54 51 47 44 42 42 43 43 44 45 47 49 50 51
50 51 51 53 51 43 42 39 39 40 44 39 36 34 36 35 34 37 33 36 37 32 32 42 40 45 49 48 49 53 52 48 45 44 44 46 47 48 49 50 51 52 52 52
45 46 48 48 42 38 38 38 40 42 36 37 39 38 38 39 39 37 32 37 31 33 40 41 43 49 48 50 53 56 53 48 46 46 46 48 50 51 52 51 49 48 50 53
44 38 44 43 38 40 43 41 40 38 37 38 39 41 42 41 40 35 31 31 34 41 47 50 50 47 50 54 57 56 50 47 45 46 48 51 53 52 49 48 50 54 59 63
41 38 41 41 40 41 37 36 38 38 39 41 39 39 39 38 37 38 35 32 29 39 42 46 48 49 51 55 56 52 48 48 48 48 50 51 49 48 50 55 59 63 64 62
43 40 40 38 36 35 31 34 37 41 41 39 39 39 38 36 32 36 35 32 35 48 47 48 48 50 53 55 56 53 49 49 49 50 51 48 47 51 56 61 63 60 58 57
37 36 37 36 35 33 35 35 36 39 38 39 41 39 36 33 31 34 35 37 41 48 50 52 57 57 56 57 56 52 50 50 50 51 49 50 53 58 62 63 58 57 55 52
Wind_Direction
281 276 274 273 269 267 261 263 270 264 267 278 279 278 296 338 196 161 136 110 45 11 25 28 80 34 29 21 31 18 8 357 347 342 338 359 338 327 331 332 319 300 306 308
270 267 275 276 270 264 255 256 259 264 261 266 277 291 302 285 171 179 181 165 304 285 259 129 24 67 47 20 31 24 4 352 332 320 319 309 298 289 318 307 309 287 304 318
270 276 277 269 267 267 256 248 251 262 261 262 272 282 280 293 266 246 232 260 252 284 250 296 246 265 337 336 332 349 340 329 321 316 306 291 278 274 286 283 274 287 296 284
271 273 267 268 266 265 266 267 261 264 269 266 264 266 272 279 266 254 249 255 278 304 278 283 268 306 317 308 309 323 326 322 310 307 294 289 281 282 280 275 274 280 289 284
261 264 264 267 264 270 275 269 265 260 266 261 253 256 261 262 248 245 265 264 333 347 9 329 304 296 300 293 292 300 302 305 298 300 304 291 276 273 276 282 279 278 277 277
263 261 254 254 262 260 257 258 260 261 263 257 242 236 245 246 238 227 240 223 178 176 255 295 294 289 289 298 299 274 281 283 302 287 276 293 301 287 276 274 268 272 277 281
266 265 262 262 261 260 261 261 263 267 267 262 257 246 247 243 245 226 237 223 205 196 211 220 255 277 341 308 297 284 280 334 328 283 267 298 347 341 325 303 293 278 280 276
264 258 254 255 254 259 264 265 267 266 264 264 256 256 237 233 238 240 230 212 201 214 221 223 245 6 353 333 329 307 346 297 312 303 282 315 316 327 321 314 317 311 306 295
258 257 255 260 259 259 263 263 263 266 266 265 264 257 253 250 241 234 230 220 208 217 231 218 184 338 315 14 360 108 238 173 240 287 283 306 311 322 315 306 301 298 299 300
253 257 257 256 259 258 255 257 260 263 266 270 271 253 246 246 246 233 226 195 212 225 234 250 265 268 268 280 291 200 193 229 259 275 291 306 307 313 309 289 295 299 292 294
251 253 252 256 257 256 253 257 264 274 276 277 271 253 246 249 248 247 223 204 214 234 239 239 224 258 261 268 277 259 238 252 252 263 284 300 305 306 303 300 300 300 298 288
247 247 249 252 255 257 253 254 260 262 263 276 254 248 249 252 242 235 219 207 220 236 245 231 219 210 234 256 259 273 274 268 275 282 292 298 302 303 303 302 302 302 297 290
247 247 248 247 252 256 255 253 254 261 263 251 247 244 246 259 254 240 222 223 217 227 240 232 228 224 226 237 251 264 277 294 294 291 297 296 293 293 295 296 296 299 298 293
244 244 246 245 246 248 250 248 246 250 252 251 250 252 241 248 248 246 244 236 224 231 240 234 230 237 243 248 251 259 269 282 291 292 293 292 292 292 290 292 294 297 296 289
240 240 243 243 245 244 247 247 243 244 250 249 251 252 239 245 256 250 247 241 238 242 246 249 251 244 255 264 264 273 279 272 281 292 289 291 288 290 290 293 293 292 288 282
243 239 241 241 239 239 242 245 240 237 245 250 245 250 247 244 255 251 237 238 246 247 250 253 257 265 258 266 272 274 275 274 277 284 282 288 290 290 289 291 288 287 284 282
241 239 242 239 235 235 236 237 238 235 239 246 253 248 246 249 263 256 252 253 259 261 261 260 263 261 261 265 271 279 279 282 287 291 290 289 289 290 291 286 283 283 286 286
237 233 235 236 236 234 234 235 236 235 241 248 249 241 251 251 254 260 264 262 263 267 264 266 274 275 275 282 286 289 290 290 290 290 288 290 292 291 289 286 285 287 287 287
230 223 226 229 229 226 230 233 237 237 238 243 244 248 254 256 258 262 269 273 272 274 273 274 276 282 284 277 282 291 292 295 295 298 297 297 294 293 294 294 292 291 290 289
226 220 217 222 227 222 226 229 234 239 242 245 247 254 256 256 260 272 275 275 277 273 276 288 290 290 293 299 301 298 300 304 304 304 304 303 301 300 300 299 297 295 294 293
230 228 220 217 217 217 224 227 231 233 237 247 250 250 252 259 269 272 275 284 281 281 289 297 291 296 299 299 304 311 311 309 308 307 307 305 305 305 304 302 299 297 295 293
229 228 224 222 219 213 222 226 231 235 242 249 245 246 257 266 270 280 284 279 294 292 299 300 303 304 305 310 315 315 313 311 310 309 307 307 307 306 304 302 300 299 299 297
223 224 225 220 214 210 217 225 231 235 237 240 245 252 258 265 273 284 283 286 301 310 309 305 303 307 312 315 315 313 312 311 309 308 308 309 309 308 306 304 305 304 302 300
219 223 221 216 213 216 218 225 234 238 236 244 250 256 263 271 279 284 291 303 315 320 309 313 315 314 313 314 314 313 312 311 309 309 311 311 310 308 309 309 309 307 304 302
212 218 212 207 211 215 216 224 232 239 244 249 253 258 260 266 275 279 281 290 301 320 321 321 319 315 314 315 314 313 311 310 309 312 314 312 310 311 312 311 310 308 306 305
207 210 205 203 207 210 219 224 230 239 245 250 254 260 263 266 275 271 276 282 300 319 330 330 328 319 316 316 314 313 311 310 313 316 315 314 315 316 315 315 313 311 310 308
Height
10967 10967 10967 10969 10969 10972 10974 10973 10971 10972 10970 10969 10968 10969 10967 10967 10964 10961 10960 10957 10955 10957 10959 10956 10959 10963 10962 10961 10960 10958 10958 10956 10956 10954 10953 10949 10952 10953 10953 10955 10955 10954 10954 10952
10960 10958 10962 10964 10962 10966 10969 10968 10966 10966 10968 10968 10967 10964 10961 10965 10963 10959 10956 10955 10955 10957 10958 10957 10960 10961 10962 10959 10955 10955 10953 10952 10953 10953 10951 10949 10949 10950 10951 10952 10955 10953 10952 10950
10953 10953 10957 10956 10955 10957 10961 10961 10961 10960 10963 10965 10964 10961 10959 10959 10961 10958 10953 10954 10955 10956 10956 10957 10957 10959 10960 10958 10955 10952 10950 10949 10948 10948 10947 10946 10946 10947 10948 10951 10952 10951 10953 10951
10945 10950 10950 10950 10947 10950 10953 10955 10956 10957 10957 10961 10960 10958 10956 10956 10958 10953 10951 10952 10956 10956 10956 10954 10956 10958 10957 10955 10952 10949 10945 10943 10942 10942 10942 10942 10943 10942 10943 10945 10946 10947 10948 10950
10934 10945 10947 10945 10941 10945 10949 10951 10949 10951 10951 10956 10956 10956 10955 10956 10956 10950 10948 10953 10958 10959 10960 10960 10958 10955 10952 10948 10946 10943 10942 10943 10942 10937 10937 10938 10938 10937 10937 10937 10937 10939 10941 10944
10929 10937 10939 10934 10939 10938 10942 10941 10943 10945 10947 10948 10952 10955 10950 10949 10949 10947 10947 10949 10950 10953 10949 10958 10951 10950 10945 10940 10940 10937 10938 10940 10939 10929 10928 10929 10930 10932 10930 10930 10932 10933 10933 10933
10922 10931 10931 10932 10933 10932 10935 10936 10937 10940 10940 10942 10946 10946 10946 10945 10943 10943 10943 10944 10946 10951 10949 10946 10943 10939 10940 10937 10930 10928 10934 10936 10935 10925 10919 10919 10917 10921 10923 10923 10924 10924 10926 10927
10917 10923 10921 10924 10926 10927 10931 10931 10933 10935 10935 10937 10939 10939 10943 10939 10936 10937 10938 10943 10943 10945 10944 10939 10935 10934 10932 10932 10927 10928 10935 10936 10923 10925 10920 10912 10909 10908 10912 10913 10912 10913 10915 10919
10909 10911 10916 10919 10920 10925 10925 10925 10925 10928 10930 10932 10934 10934 10935 10931 10932 10932 10934 10938 10939 10940 10937 10932 10932 10934 10930 10930 10929 10931 10934 10913 10900 10913 10912 10904 10901 10898 10901 10903 10901 10903 10904 10906
10903 10902 10910 10912 10914 10917 10918 10917 10920 10922 10924 10927 10928 10928 10927 10925 10925 10923 10926 10933 10933 10930 10933 10931 10930 10932 10930 10926 10927 10931 10931 10912 10903 10913 10904 10895 10891 10886 10892 10894 10890 10891 10891 10891
10894 10896 10902 10905 10908 10906 10912 10913 10915 10919 10921 10923 10923 10922 10920 10919 10918 10918 10922 10926 10926 10923 10922 10923 10922 10923 10924 10923 10917 10918 10920 10917 10912 10902 10894 10886 10880 10877 10881 10881 10878 10877 10877 10876
10881 10885 10893 10898 10898 10901 10905 10907 10911 10913 10915 10917 10916 10916 10914 10914 10914 10913 10916 10921 10919 10917 10916 10919 10917 10914 10911 10908 10906 10901 10901 10898 10891 10885 10875 10871 10868 10867 10868 10864 10861 10860 10858 10857
10869 10879 10882 10887 10891 10892 10898 10901 10905 10908 10911 10910 10907 10910 10912 10910 10910 10910 10912 10913 10914 10911 10911 10908 10910 10908 10905 10900 10894 10890 10884 10876 10871 10866 10862 10861 10861 10861 10855 10850 10846 10843 10839 10834
10858 10866 10872 10878 10879 10882 10889 10894 10898 10901 10904 10904 10902 10902 10910 10907 10905 10905 10906 10908 10908 10907 10903 10902 10902 10901 10898 10893 10886 10880 10875 10871 10865 10862 10859 10857 10852 10846 10842 10836 10831 10826 10822 10816
10845 10856 10859 10863 10869 10876 10879 10885 10891 10896 10897 10898 10897 10895 10901 10900 10898 10901 10902 10901 10900 10898 10899 10900 10899 10896 10891 10889 10885 10881 10875 10867 10864 10861 10853 10844 10839 10836 10828 10821 10814 10810 10808 10804
10836 10846 10848 10853 10858 10865 10872 10877 10883 10889 10890 10890 10891 10890 10892 10894 10894 10892 10892 10890 10888 10888 10887 10890 10890 10889 10889 10885 10881 10876 10868 10862 10856 10852 10845 10835 10825 10818 10812 10804 10798 10795 10793 10791
10826 10835 10838 10844 10848 10856 10865 10869 10874 10880 10881 10882 10881 10883 10882 10885 10885 10883 10883 10883 10883 10882 10882 10881 10879 10878 10875 10871 10869 10863 10857 10851 10843 10833 10826 10818 10807 10798 10792 10789 10785 10781 10779 10777
10813 10822 10826 10832 10839 10850 10855 10861 10865 10874 10875 10875 10875 10876 10877 10875 10875 10876 10876 10875 10873 10871 10870 10869 10865 10863 10860 10857 10852 10847 10840 10835 10828 10818 10807 10797 10791 10785 10781 10777 10772 10768 10765 10763
10797 10804 10813 10820 10829 10841 10848 10853 10859 10865 10866 10865 10865 10869 10871 10868 10868 10868 10868 10867 10865 10863 10862 10860 10858 10856 10851 10847 10841 10835 10828 10820 10809 10799 10792 10786 10780 10775 10769 10764 10759 10755 10751 10747
10783 10790 10799 10810 10818 10833 10839 10847 10851 10855 10858 10853 10859 10862 10861 10859 10862 10863 10864 10863 10860 10857 10855 10852 10848 10844 10838 10833 10828 10821 10813 10805 10795 10787 10781 10775 10768 10763 10757 10752 10746 10741 10736 10731
10775 10786 10796 10799 10808 10824 10832 10841 10845 10847 10846 10850 10852 10851 10852 10854 10855 10857 10858 10856 10853 10851 10849 10846 10840 10834 10829 10822 10814 10806 10797 10790 10782 10775 10769 10762 10755 10749 10743 10737 10731 10724 10719 10714
10767 10777 10789 10798 10811 10820 10827 10832 10836 10834 10842 10840 10840 10841 10845 10846 10849 10849 10849 10847 10845 10844 10840 10834 10828 10821 10814 10807 10798 10790 10783 10776 10769 10762 10756 10749 10743 10736 10729 10722 10715 10709 10703 10698
10760 10774 10783 10797 10810 10811 10815 10822 10827 10829 10831 10830 10831 10836 10838 10839 10841 10842 10840 10837 10835 10830 10825 10821 10814 10806 10799 10791 10785 10777 10770 10763 10758 10751 10744 10737 10730 10721 10714 10708 10702 10695 10687 10680
10757 10767 10775 10787 10800 10806 10812 10818 10820 10821 10822 10823 10826 10828 10829 10831 10833 10831 10829 10826 10823 10821 10817 10809 10800 10793 10787 10780 10774 10766 10758 10751 10745 10740 10733 10725 10717 10709 10701 10694 10686 10679 10670 10660
10748 10756 10768 10781 10792 10799 10806 10811 10815 10814 10814 10816 10817 10820 10821 10822 10822 10821 10820 10819 10816 10811 10803 10794 10788 10781 10775 10769 10761 10753 10746 10740 10733 10726 10719 10712 10705 10698 10690 10681 10671 10661 10651 10642
10742 10751 10762 10773 10782 10789 10793 10799 10803 10804 10806 10809 10810 10811 10812 10813 10812 10812 10811 10807 10803 10797 10788 10783 10778 10772 10764 10758 10750 10742 10735 10728 10721 10714 10706 10698 10691 10683 10674 10664 10654 10644 10634 10626